Location: Gwatt
(46.7204°N, 7.6223°E)
Time: 00:40:58
(UTC+00:00)

Vanguard 2 - Pass Details

Date: 21 January 2021
Orbit: 552 x 2938 km, 32.9° (Epoch: 03 March)

Event Time Altitude Azimuth Distance (km) Brightness Sun altitude
Rises 20:02:57 0° 250° (WSW) 3,233 11.4 -38.3°
Reaches altitude 10° 20:05:35 10° 234° (SW) 2,544 10.6 -38.8°
Enters shadow 20:07:04 16° 220° (SW) 2,295 10.1 -39.0°
Maximum altitude 20:10:08 22° 185° (S) 2,249 - -39.5°
Drops below altitude 10° 20:16:26 10° 140° (SE) 3,659 - -40.6°
Sets 20:21:14 0° 127° (SE) 5,129 - -41.4°
